�������l�o���
Date,Time,MP-1(��Sv/h),MP-2(��Sv/h),MP-3(��Sv/h),MP-4(��Sv/h),MP-5(��Sv/h),MP-6(��Sv/h),MP-7(��Sv/h),MP-8(��Sv/h),����,����(m/s),���J
2022/08/25,00:00,0.607,0.863,0.543,1.048,0.749,0.344,0.599,0.564,�k�k��,1.2,��
2022/08/25,00:10,0.609,0.863,0.542,1.047,0.753,0.344,0.598,0.562,�k�k��,1.5,��
2022/08/25,00:20,0.609,0.863,0.542,1.047,0.749,0.344,0.599,0.563,�k,1.2,��
2022/08/25,00:30,0.612,0.865,0.542,1.052,0.752,0.345,0.599,0.561,�k�k��,1.4,��
2022/08/25,00:40,0.609,0.864,0.541,1.048,0.750,0.345,0.600,0.562,�k��,1.9,��
2022/08/25,00:50,0.610,0.863,0.543,1.048,0.753,0.345,0.598,0.563,�k��,2.3,��
2022/08/25,01:00,0.609,0.866,0.543,1.049,0.749,0.343,0.600,0.564,�k��,2.5,��
2022/08/25,01:10,0.610,0.864,0.542,1.049,0.750,0.344,0.599,0.562,�k��,1.5,��
2022/08/25,01:20,0.608,0.865,0.543,1.048,0.750,0.343,0.600,0.563,�k��,1.9,��
2022/08/25,01:30,0.607,0.866,0.543,1.049,0.751,0.344,0.600,0.563,�k��,0.9,��
2022/08/25,01:40,0.610,0.865,0.541,1.050,0.750,0.345,0.601,0.564,�k��,0.9,��
2022/08/25,01:50,0.611,0.865,0.542,1.047,0.752,0.345,0.600,0.562,���k��,0.6,��
2022/08/25,02:00,0.609,0.864,0.542,1.048,0.752,0.343,0.600,0.564,�k�k��,0.9,��
2022/08/25,02:10,0.608,0.865,0.542,1.048,0.751,0.344,0.600,0.563,�k��,1.2,��
2022/08/25,02:20,0.609,0.864,0.542,1.049,0.750,0.344,0.598,0.562,�k��,0.9,��
2022/08/25,02:30,0.608,0.867,0.541,1.048,0.753,0.344,0.599,0.563,���k��,1.7,��
2022/08/25,02:40,0.609,0.864,0.542,1.047,0.751,0.343,0.600,0.563,�k��,0.9,��
2022/08/25,02:50,0.608,0.866,0.543,1.048,0.749,0.343,0.602,0.563,�k��,1.2,��
2022/08/25,03:00,0.610,0.863,0.542,1.049,0.752,0.344,0.599,0.563,�k��,1.4,��
2022/08/25,03:10,0.610,0.865,0.542,1.050,0.752,0.344,0.600,0.563,�k��,1.7,�L
2022/08/25,03:20,0.609,0.862,0.541,1.048,0.751,0.344,0.601,0.563,�k��,1.2,�L
2022/08/25,03:30,0.610,0.865,0.545,1.052,0.752,0.343,0.601,0.563,���k��,0.8,�L
2022/08/25,03:40,0.610,0.865,0.542,1.051,0.752,0.343,0.599,0.565,�k��,1.2,�L
2022/08/25,03:50,0.609,0.864,0.542,1.050,0.751,0.343,0.601,0.564,�k��,1.2,��
2022/08/25,04:00,0.611,0.864,0.542,1.048,0.751,0.343,0.601,0.563,�k��,0.9,��
2022/08/25,04:10,0.609,0.864,0.544,1.050,0.753,0.344,0.600,0.562,�k��,1.4,��
2022/08/25,04:20,0.610,0.864,0.542,1.049,0.751,0.344,0.601,0.563,�k�k��,1.4,��
2022/08/25,04:30,0.610,0.863,0.543,1.050,0.751,0.345,0.601,0.562,�k��,0.8,��
2022/08/25,04:40,0.610,0.865,0.543,1.049,0.752,0.345,0.601,0.563,�k��,0.6,��
2022/08/25,04:50,0.610,0.865,0.543,1.050,0.751,0.345,0.601,0.564,�k��,0.9,��
2022/08/25,05:00,0.609,0.863,0.542,1.050,0.750,0.344,0.600,0.564,�k��,0.8,��
2022/08/25,05:10,0.607,0.864,0.542,1.049,0.751,0.344,0.600,0.563,�k�k��,0.6,��
2022/08/25,05:20,0.609,0.863,0.542,1.048,0.751,0.344,0.601,0.561,�k�k��,0.8,��
2022/08/25,05:30,0.609,0.864,0.542,1.051,0.751,0.344,0.599,0.563,�k�k��,1.7,��
2022/08/25,05:40,0.609,0.864,0.541,1.047,0.749,0.344,0.600,0.564,�k�k��,2.2,��
2022/08/25,05:50,0.610,0.865,0.543,1.049,0.752,0.343,0.602,0.560,�k�k��,2.0,��
2022/08/25,06:00,0.608,0.864,0.543,1.051,0.750,0.343,0.600,0.561,�k,2.0,��
2022/08/25,06:10,0.609,0.864,0.542,1.050,0.751,0.343,0.599,0.564,�k�k��,2.6,��
2022/08/25,06:20,0.611,0.865,0.544,1.052,0.752,0.344,0.600,0.563,�k�k��,2.0,��
2022/08/25,06:30,0.612,0.865,0.545,1.050,0.751,0.344,0.601,0.562,�k�k��,1.7,��
2022/08/25,06:40,0.610,0.865,0.542,1.051,0.752,0.345,0.601,0.564,�k,1.2,��
2022/08/25,06:50,0.610,0.863,0.543,1.048,0.751,0.344,0.599,0.564,�k,1.1,��
2022/08/25,07:00,0.610,0.865,0.544,1.050,0.751,0.343,0.600,0.563,�k�k��,1.1,��
2022/08/25,07:10,0.610,0.864,0.543,1.050,0.751,0.344,0.600,0.564,�k,0.8,��
2022/08/25,07:20,0.610,0.862,0.543,1.050,0.753,0.343,0.601,0.563,�k�k��,0.8,��
2022/08/25,07:30,0.609,0.864,0.542,1.050,0.750,0.343,0.601,0.562,�k,1.4,��
2022/08/25,07:40,0.609,0.862,0.543,1.048,0.752,0.343,0.600,0.564,�k,2.8,��
2022/08/25,07:50,0.609,0.862,0.543,1.050,0.751,0.344,0.599,0.563,�k�k��,2.3,��
2022/08/25,08:00,0.609,0.864,0.543,1.049,0.750,0.343,0.599,0.563,�k,2.3,��
2022/08/25,08:10,0.609,0.861,0.542,1.049,0.751,0.345,0.599,0.563,�k,1.5,��
2022/08/25,08:20,0.608,0.860,0.544,1.050,0.750,0.344,0.598,0.563,�k�k��,1.9,��
2022/08/25,08:30,0.609,0.859,0.544,1.050,0.750,0.345,0.598,0.562,�k�k��,2.6,��
2022/08/25,08:40,0.608,0.858,0.543,1.048,0.750,0.343,0.597,0.562,�k��,1.9,��
2022/08/25,08:50,0.608,0.860,0.540,1.050,0.749,0.342,0.600,0.561,�k�k��,2.0,��
2022/08/25,09:00,0.609,0.860,0.542,1.049,0.749,0.344,0.598,0.561,�k��,2.0,��
2022/08/25,09:10,0.607,0.858,0.542,1.051,0.748,0.343,0.599,0.562,�k�k��,1.7,��
2022/08/25,09:20,0.608,0.857,0.541,1.050,0.750,0.343,0.598,0.563,�k�k��,1.9,��
2022/08/25,09:30,0.610,0.858,0.541,1.050,0.747,0.343,0.598,0.562,�k�k��,2.2,��
2022/08/25,09:40,0.611,0.860,0.542,1.049,0.751,0.343,0.599,0.561,���k��,2.6,��
2022/08/25,09:50,0.607,0.861,0.541,1.049,0.751,0.342,0.599,0.560,�k�k��,2.5,��
2022/08/25,10:00,0.609,0.859,0.543,1.048,0.750,0.343,0.598,0.560,�k�k��,3.0,��
2022/08/25,10:10,0.609,0.860,0.543,1.048,0.750,0.343,0.597,0.561,�k�k��,2.6,��
2022/08/25,10:20,0.608,0.857,0.543,1.048,0.749,0.343,0.598,0.561,�k�k��,2.3,��
2022/08/25,10:30,0.609,0.862,0.540,1.050,0.752,0.343,0.598,0.561,�k��,2.3,��
2022/08/25,10:40,0.609,0.862,0.541,1.049,0.753,0.344,0.599,0.562,�k��,2.2,��
2022/08/25,10:50,0.608,0.862,0.540,1.050,0.750,0.341,0.600,0.561,���k��,2.0,��
2022/08/25,11:00,0.608,0.861,0.543,1.051,0.751,0.342,0.599,0.559,�k��,2.2,��
2022/08/25,11:10,0.609,0.861,0.541,1.049,0.752,0.343,0.599,0.560,�k��,1.9,��
2022/08/25,11:20,0.610,0.862,0.542,1.048,0.751,0.344,0.599,0.560,�k��,1.9,��
2022/08/25,11:30,0.609,0.862,0.544,1.048,0.751,0.342,0.599,0.560,�k��,2.0,��
2022/08/25,11:40,0.610,0.864,0.542,1.047,0.751,0.344,0.599,0.561,�k��,2.3,��
2022/08/25,11:50,0.610,0.866,0.542,1.050,0.752,0.344,0.600,0.561,�k�k��,1.7,��
2022/08/25,12:00,0.609,0.864,0.543,1.050,0.751,0.342,0.601,0.560,�k��,1.1,��
2022/08/25,12:10,0.609,0.864,0.543,1.048,0.751,0.344,0.601,0.561,�k�k��,1.5,��
2022/08/25,12:20,0.610,0.866,0.543,1.049,0.753,0.343,0.600,0.560,���k��,1.4,��
2022/08/25,12:30,0.611,0.868,0.544,1.049,0.752,0.343,0.599,0.561,���k��,1.7,��
2022/08/25,12:40,0.611,0.866,0.542,1.049,0.752,0.344,0.600,0.559,��,2.0,��
2022/08/25,12:50,0.609,0.862,0.540,1.049,0.755,0.343,0.600,0.561,��,1.5,��
2022/08/25,13:00,0.612,0.861,0.543,1.052,0.751,0.344,0.600,0.561,���k��,1.9,��
2022/08/25,13:10,0.612,0.862,0.541,1.051,0.752,0.343,0.600,0.561,�k��,2.3,��
2022/08/25,13:20,0.609,0.863,0.542,1.052,0.750,0.344,0.600,0.561,���k��,2.2,��
2022/08/25,13:30,0.611,0.862,0.542,1.050,0.753,0.344,0.600,0.562,���k��,2.5,��
2022/08/25,13:40,0.610,0.862,0.541,1.052,0.752,0.343,0.600,0.562,�k��,2.2,��
2022/08/25,13:50,0.612,0.864,0.542,1.053,0.751,0.344,0.600,0.561,���k��,2.5,��
2022/08/25,14:00,0.610,0.862,0.543,1.052,0.752,0.343,0.601,0.562,���k��,2.6,��
2022/08/25,14:10,0.610,0.864,0.542,1.053,0.752,0.344,0.602,0.562,���k��,2.3,��
2022/08/25,14:20,0.610,0.862,0.543,1.050,0.754,0.343,0.600,0.561,��,2.6,��
2022/08/25,14:30,0.611,0.864,0.544,1.049,0.752,0.344,0.602,0.560,��,2.5,��
2022/08/25,14:40,0.609,0.862,0.544,1.053,0.753,0.342,0.602,0.561,��,2.5,��
2022/08/25,14:50,0.613,0.867,0.545,1.051,0.754,0.343,0.601,0.562,��,2.6,��
2022/08/25,15:00,0.613,0.864,0.544,1.053,0.753,0.343,0.602,0.562,��,2.3,��
2022/08/25,15:10,0.612,0.864,0.544,1.054,0.754,0.342,0.602,0.562,���쓌,2.6,��
2022/08/25,15:20,0.613,0.865,0.544,1.051,0.756,0.343,0.600,0.562,��,2.8,��
2022/08/25,15:30,0.611,0.867,0.542,1.050,0.754,0.343,0.601,0.562,��,2.2,��
2022/08/25,15:40,0.611,0.863,0.542,1.050,0.754,0.343,0.599,0.561,���k��,2.3,��
2022/08/25,15:50,0.611,0.866,0.543,1.052,0.756,0.345,0.601,0.561,���쓌,2.6,��
2022/08/25,16:00,0.613,0.863,0.543,1.052,0.756,0.344,0.602,0.561,���쓌,2.8,��
2022/08/25,16:10,0.612,0.865,0.542,1.049,0.752,0.344,0.601,0.561,��,2.2,��
2022/08/25,16:20,0.611,0.866,0.544,1.051,0.753,0.342,0.603,0.560,��,2.2,��
2022/08/25,16:30,0.612,0.866,0.543,1.051,0.755,0.343,0.601,0.561,��,2.0,��
2022/08/25,16:40,0.611,0.864,0.545,1.051,0.755,0.343,0.601,0.562,�쓌,1.9,��
2022/08/25,16:50,0.611,0.863,0.542,1.049,0.750,0.343,0.600,0.560,�쓌,2.0,��
2022/08/25,17:00,0.613,0.863,0.540,1.048,0.751,0.345,0.600,0.561,�쓌,2.2,��
2022/08/25,17:10,0.609,0.863,0.543,1.049,0.752,0.345,0.599,0.561,�쓌,1.4,��
2022/08/25,17:20,0.610,0.864,0.544,1.050,0.754,0.345,0.601,0.563,�쓌,1.2,��
2022/08/25,17:30,0.610,0.864,0.544,1.050,0.753,0.344,0.601,0.563,�쓌,1.7,��
2022/08/25,17:40,0.609,0.867,0.543,1.052,0.753,0.346,0.604,0.565,�쓌,2.2,��
2022/08/25,17:50,0.610,0.867,0.544,1.052,0.754,0.345,0.602,0.564,��쓌,1.7,��
2022/08/25,18:00,0.608,0.867,0.543,1.055,0.756,0.344,0.603,0.563,�쓌,2.2,��
2022/08/25,18:10,0.609,0.865,0.545,1.051,0.754,0.346,0.604,0.563,�쓌,2.5,��
2022/08/25,18:20,0.609,0.865,0.542,1.053,0.755,0.343,0.600,0.564,��쓌,2.3,��
2022/08/25,18:30,0.609,0.864,0.544,1.052,0.755,0.343,0.602,0.563,�쓌,1.4,��
2022/08/25,18:40,0.612,0.864,0.545,1.052,0.754,0.343,0.602,0.563,��,2.3,��
2022/08/25,18:50,0.612,0.866,0.543,1.054,0.754,0.346,0.604,0.563,��,2.3,��
2022/08/25,19:00,0.614,0.864,0.544,1.054,0.755,0.345,0.603,0.563,��쐼,2.3,��
2022/08/25,19:10,0.608,0.866,0.544,1.053,0.753,0.344,0.603,0.563,��,2.3,��
2022/08/25,19:20,0.610,0.867,0.544,1.054,0.753,0.345,0.602,0.563,��쐼,1.7,��
2022/08/25,19:30,0.610,0.868,0.544,1.054,0.755,0.344,0.601,0.565,��,2.2,��
2022/08/25,19:40,0.609,0.867,0.545,1.055,0.754,0.345,0.602,0.563,��쐼,1.7,��
2022/08/25,19:50,0.609,0.869,0.545,1.052,0.754,0.344,0.602,0.564,��쐼,1.4,��
2022/08/25,20:00,0.608,0.867,0.544,1.053,0.754,0.345,0.603,0.564,��쐼,1.4,��
2022/08/25,20:10,0.611,0.866,0.543,1.053,0.754,0.344,0.602,0.563,��,1.7,��
2022/08/25,20:20,0.610,0.866,0.545,1.053,0.753,0.345,0.602,0.564,��,1.7,��
2022/08/25,20:30,0.609,0.867,0.543,1.056,0.755,0.345,0.601,0.563,��,2.0,��
2022/08/25,20:40,0.610,0.867,0.544,1.053,0.754,0.345,0.604,0.563,��,1.9,��
2022/08/25,20:50,0.610,0.865,0.544,1.055,0.754,0.344,0.603,0.564,��,2.2,��
2022/08/25,21:00,0.609,0.867,0.543,1.052,0.752,0.344,0.601,0.564,��,1.5,��
2022/08/25,21:10,0.610,0.865,0.543,1.056,0.753,0.345,0.602,0.564,��쐼,0.6,��
2022/08/25,21:20,0.609,0.867,0.544,1.053,0.755,0.344,0.603,0.564,��,1.7,��
2022/08/25,21:30,0.610,0.868,0.544,1.054,0.754,0.344,0.603,0.564,��,1.9,��
2022/08/25,21:40,0.610,0.867,0.544,1.053,0.753,0.344,0.602,0.563,��,2.0,��
2022/08/25,21:50,0.610,0.867,0.543,1.055,0.752,0.345,0.603,0.563,��,1.1,��
2022/08/25,22:00,0.610,0.865,0.544,1.055,0.755,0.344,0.603,0.564,��,1.7,��
2022/08/25,22:10,0.609,0.866,0.545,1.055,0.757,0.344,0.603,0.563,��,0.9,�L
2022/08/25,22:20,0.609,0.870,0.544,1.055,0.756,0.344,0.603,0.563,��,1.4,�L
2022/08/25,22:30,0.610,0.868,0.544,1.053,0.755,0.344,0.603,0.563,��,2.6,��
2022/08/25,22:40,0.611,0.866,0.543,1.056,0.754,0.345,0.604,0.565,��쓌,2.8,��
2022/08/25,22:50,0.611,0.869,0.545,1.053,0.755,0.345,0.603,0.566,��쓌,2.9,��
2022/08/25,23:00,0.611,0.869,0.544,1.055,0.755,0.345,0.604,0.565,��,4.0,��
2022/08/25,23:10,0.609,0.867,0.543,1.054,0.753,0.344,0.603,0.564,��쓌,3.4,��
2022/08/25,23:20,0.608,0.870,0.545,1.055,0.754,0.344,0.603,0.563,��,3.7,��
2022/08/25,23:30,0.610,0.867,0.544,1.056,0.754,0.343,0.603,0.564,��,3.5,��
2022/08/25,23:40,0.610,0.868,0.544,1.054,0.755,0.343,0.602,0.564,��,1.7,��
2022/08/25,23:50,0.611,0.869,0.545,1.053,0.754,0.345,0.604,0.565,��쓌,2.0,��
